Regional Weather Roundup
Issued by NWS Newport/Morehead, NC

Current Version | Previous Version | Graphics & Text | Print | Product List | Glossary Off
Versions: 1 2 3 4 5 6 7 8 9 10 11 12 13 14 15 16 17 18 19 20 21 22 23 24 25 26 27 28 29 30 31 32 33 34 35 36 37 38 39 40 41 42 43 44 45 46 47 48 49 50

000
ASUS42 KMHX 290725
RWRMHX
WEATHER ROUNDUP FOR EASTERN NORTH CAROLINA
NATIONAL WEATHER SERVICE NEWPORT/MOREHEAD CITY NC
300 AM EDT MON AUG 29 2016

NOTE: "FAIR" INDICATES FEW OR NO CLOUDS BELOW 12,000 FEET
WITH NO SIGNIFICANT WEATHER AND/OR OBSTRUCTIONS TO VISIBILITY

NCZ015>017-031-032-045>047-102-103-290800-
NORTH COAST

CITY           SKY/WX    TMP DP  RH WIND       PRES   REMARKS
EDENTON        CLOUDY   N/A N/A N/A N6        30.12F
ELIZABETH CITY CLOUDY    76  73  91 N12       30.11F
KITTY HAWK     CLOUDY    78  78 100 NE3       30.08F
MANTEO         CLOUDY    78  78 100 NE6       30.10S

$$

NCZ045>047-081-094-103-104-290800-
CENTRAL COAST

CITY           SKY/WX    TMP DP  RH WIND       PRES   REMARKS
FRISCO         CLOUDY    78  74  87 E6        30.07S

$$

NCZ095-097-098-100-101-290800-
SOUTHERN COAST

CITY           SKY/WX    TMP DP  RH WIND       PRES   REMARKS
BEAUFORT       CLOUDY    78  77  96 N6        30.07F
CEDAR ISLAND   NOT AVBL
JACKSONVILLE   LGT RAIN  76  74  93 N5        30.08F
PINEY ISLAND   NOT AVBL
WILMINGTON     CLOUDY    76  75  97 N7        30.08F


$$

NCZ011>013-027>030-043-044-078>080-089-090>093-098-290800-
COASTAL PLAIN

CITY           SKY/WX    TMP DP  RH WIND       PRES   REMARKS
AHOSKIE        MOCLDY    71  69  95 N3        30.13F
CLINTON        PTCLDY    75  75  98 NE3       30.11F
ELIZABETHTOWN  CLOUDY    74  74 100 CALM      30.10F
GOLDSBORO      CLOUDY    75  75 100 N7        30.10F
GREENVILLE     PTCLDY    73  73 100 N3        30.13F
HAVELOCK       CLOUDY    78  76  93 N9        30.10S
KENANSVILLE    CLOUDY    75  73  94 NE5       30.11F
KINSTON        CLOUDY    74  73  96 N6        30.12F
NEW BERN       MOCLDY    76  74  93 N6        30.11S
RICHLANDS      RAIN      74  74 100 N6        30.11S
ROCKY MOUNT    CLOUDY    73  72  96 N6        30.13F
WASHINGTON     DRIZZLE   74  73  97 N7        30.11F
WHITEVILLE     CLOUDY    74  73  95 N3        30.09S

$$

AMZ130-135-150-152-154-156-158-170-250-252-270-ANZ085-086-088-633-658-670-290800-
MARINE OBSERVATIONS

STATION/POSITION TIME  TEMP    WIND        PRES    WAVE   SWELL
                       AIR SEA DIR/SP/G            HT/PER HT/PER
                 (UTC) (F)     (DEG/KT/KT) (MB)    (FT/S) (FT/S)
CHESAPEAKE LIGHT NOT AVBL
64 E VA BEACH    0650   78 81   10/ 10/ 12 1018.9    4/ 8   3/ 8
DUCK             0700   79 78   30/  9/ 10 1018.5
2 E DUCK         0611      79                N/A     4/ 6   2/14
OREGON INLET     0700   80 81   10/  7/ 10 1018.6
13E OREGON INLT  0700      81                N/A     4/ 8   3/ 8
HATTERAS CG      0700   79 82   70/  4/  6 1018.0
DIAMOND BUOY     0650   82 84   80/ 14/ 16 1017.9    5/14   3/14
CAPE LOOKOUT     0700   80     360/  7/  8 1017.8
BEAUFORT LAB     0700   79 81  350/  6/  9 1017.7
30 SE NEW RVR IN 0708   82 84   30/  6/ 10 1017.7
30 SE NEW RVR IN 0625      84                N/A     3/ 7   2/14
27 SE WRIGHTSVLE 0708   81 83  360/ 10/ 14 1018.2
5 SE WRIGHTSVLE  0608   80 83   40/ 14/ 19 1019.1
225 S CAPE HAT   0650   82 84   10/ 10/ 12 1015.1    7/ 9   7/ 9
41 SE CHARLESTON 0650   83 85   70/  8/ 10 1016.8    3/ 7   3/ 7

$$




USA.gov is the U.S. government's official web portal to all federal, state and local government web resources and services.